Location: Buckeye Ditch
(40.9104°N, 122.9517°W)
Time: 19:34:49
(UTC+00:00)

BlueWalker 3 - Pass Details

Date: 24 June 2024
Orbit: 480 x 491 km, 53.2° (Epoch: 24 July)

Event Time Altitude Azimuth Distance (km) Brightness Sun altitude
Rises 10:02:31 0° 308° (NW) 2,538 5.7 -21.0°
Reaches altitude 10° 10:04:41 10° 307° (NW) 1,656 4.7 -20.8°
Enters shadow 10:08:20 76° 238° (WSW) 497 1.7 -20.5°
